TimeEST,TemperatureF,Dew PointF,Humidity,Sea Level PressureIn,VisibilityMPH,Wind Direction,Wind SpeedMPH,Gust SpeedMPH,PrecipitationIn,Events,Conditions,WindDirDegrees,DateUTC
12:48 AM,30.2,26.6,86,30.05,10.0,NNW,3.5,-,N/A,,Mostly Cloudy,340,2012-12-25 05:48:00
12:55 AM,29.8,27.3,90,30.05,10.0,North,3.5,-,N/A,,Mostly Cloudy,350,2012-12-25 05:55:00
1:55 AM,30.2,25.5,83,30.06,10.0,NNE,6.9,-,N/A,,Overcast,20,2012-12-25 06:55:00
2:12 AM,30.2,26.6,86,30.07,10.0,NNE,8.1,-,N/A,,Overcast,20,2012-12-25 07:12:00
2:55 AM,29.7,26.1,86,30.10,10.0,NNE,8.1,-,N/A,,Overcast,30,2012-12-25 07:55:00
3:55 AM,29.3,26.1,88,30.13,10.0,North,5.8,-,N/A,,Overcast,10,2012-12-25 08:55:00
4:55 AM,28.9,25.7,88,30.13,10.0,NNE,8.1,-,N/A,,Overcast,20,2012-12-25 09:55:00
5:55 AM,28.0,24.6,87,30.17,10.0,NNE,8.1,-,N/A,,Overcast,20,2012-12-25 10:55:00
6:55 AM,25.9,23.5,91,30.18,10.0,NE,6.9,-,N/A,,Partly Cloudy,40,2012-12-25 11:55:00
7:55 AM,25.2,23.0,91,30.21,10.0,North,5.8,-,N/A,,Clear,360,2012-12-25 12:55:00
8:55 AM,25.5,23.5,92,30.22,10.0,NNE,5.8,-,N/A,,Clear,20,2012-12-25 13:55:00
9:55 AM,27.7,24.8,89,30.21,10.0,NE,9.2,-,N/A,,Clear,40,2012-12-25 14:55:00
10:30 AM,28.4,24.8,86,30.22,10.0,NE,11.5,-,N/A,,Clear,40,2012-12-25 15:30:00
10:55 AM,30.2,25.2,82,30.26,10.0,ENE,13.8,-,N/A,,Partly Cloudy,60,2012-12-25 15:55:00
11:55 AM,32.0,25.5,77,30.25,10.0,NE,10.4,-,N/A,,Clear,50,2012-12-25 16:55:00
12:55 PM,33.4,25.7,73,30.25,10.0,NNE,9.2,-,N/A,,Clear,30,2012-12-25 17:55:00
1:20 PM,33.8,26.6,75,30.23,10.0,NE,11.5,-,N/A,,Mostly Cloudy,50,2012-12-25 18:20:00
1:55 PM,34.3,26.8,74,30.23,10.0,ENE,11.5,-,N/A,,Overcast,60,2012-12-25 18:55:00
2:55 PM,33.1,26.2,76,30.21,10.0,NE,10.4,-,N/A,,Overcast,40,2012-12-25 19:55:00
3:55 PM,32.7,26.1,76,30.22,10.0,ENE,8.1,-,N/A,,Overcast,70,2012-12-25 20:55:00
4:55 PM,32.4,25.9,77,30.22,10.0,East,6.9,-,N/A,,Overcast,80,2012-12-25 21:55:00
5:55 PM,32.2,25.5,76,30.22,10.0,ENE,11.5,-,N/A,,Overcast,70,2012-12-25 22:55:00
6:55 PM,32.0,25.7,78,30.24,10.0,ENE,13.8,-,N/A,,Overcast,70,2012-12-25 23:55:00
7:55 PM,31.8,25.9,79,30.24,10.0,ENE,8.1,-,N/A,,Overcast,70,2012-12-26 00:55:00
8:04 PM,32.0,26.6,80,30.24,10.0,ENE,9.2,-,N/A,,Overcast,60,2012-12-26 01:04:00
8:55 PM,31.5,27.0,83,30.22,10.0,NE,9.2,-,N/A,,Overcast,50,2012-12-26 01:55:00
9:15 PM,32.0,26.6,80,30.20,10.0,NE,15.0,-,N/A,,Overcast,50,2012-12-26 02:15:00
9:55 PM,31.3,25.7,80,30.19,10.0,ENE,12.7,-,N/A,,Overcast,60,2012-12-26 02:55:00
10:28 PM,32.0,26.6,80,30.18,10.0,ENE,17.3,-,N/A,,Overcast,60,2012-12-26 03:28:00
10:47 PM,30.2,26.6,86,30.17,10.0,NE,16.1,24.2,N/A,,Overcast,50,2012-12-26 03:47:00
10:52 PM,30.2,26.6,86,30.17,10.0,ENE,17.3,24.2,N/A,,Overcast,60,2012-12-26 03:52:00
10:54 PM,30.2,26.6,86,30.17,10.0,NE,17.3,-,N/A,,Overcast,50,2012-12-26 03:54:00
10:55 PM,32.0,24.8,75,30.17,10.0,ENE,15.0,-,N/A,,Overcast,60,2012-12-26 03:55:00
11:55 PM,30.4,24.8,80,30.15,10.0,NE,16.1,21.9,N/A,,Overcast,50,2012-12-26 04:55:00